星链-3979 (STARLINK-3979 )

导读

STARLINK-3979是美国SpaceX公司于2022年5月14日发射的星链卫星,属于第一代近地轨道卫星互联网星座。作为星链庞大卫星组网中的一员,它运行在550公里左右的近地轨道,配备相控阵天线与氪离子推进器,可提供低延迟宽带互联网接入,服务全球偏远地区通信、应急救援等场景,退役后将主动降轨在大气层中完全烧毁,减少空间碎片影响。

Basic Information
目录编号:
52608
目录名称:
STARLINK-3979
国际标识:
2022-052L
轨道中心:
EARTH
卫星名称:
星链-3979
卫星全名:
星链-3979 (STARLINK-3979 )
卫星状态:
在轨 (已飞行1495 天)
发射日期:
2022-05-14 UTC
国别 :
美国 (US)
星等 :
--
Orbit Information
数据来源 国际轨道数据 AOE轨道数据
星历时间 2026-06-17T03:20:52+0800
19小时前
查看轨道信息
2026-06-17T02:00:00+0800
20小时前
查看轨道信息
半长轴 6917.907km 6917.918km
偏心率 0.0001182 0.0001132
轨道倾角 53.159° 53.156°
近地点辐角 86.392° 46.152°
升交点赤经 194.076° 194.332°
平近点角 273.721° 8.759°
近地点 538.952km 538.997km
远地点 540.588km 540.565km
周期 95.438分钟 95.438分钟
每日圈数 15.088314 15.08828
Detailed Information
固有亮度:
5
最大亮度:
2.5
卫星平台:
Starlink v1.5
覆盖范围:
全球
运营商:
太空探索技术公司
运营商所在国:
美国
制造商(研发单位):
太空探索技术公司
制造商所在国:
美国
使用方式:
暂无
Satellite Introduction
星链(Starlink)计划是由太空探索技术公司(SpaceX)提出的一个巨型低轨卫星互联网星座项目,计划在2019年至2024年间在太空搭建由约1.2万颗卫星组成的“星链”网络,其中1584颗将部署在地球上空550千米处的近地轨道,并从2020年开始工作。该卫星仍在工作。
2D Orbit Map
3D Orbit Map
Orbit Altitude Analysis Chart
Orbit Inclination Analysis Chart
Orbit Comprehensive Analysis Chart
View Comprehensive Chart